Location: Observatoire
(46.1952°N, 5.3391°E)
Time: 08:15:31
(UTC+01:00)

Explorer 7 - Pass Details

Date: 18 February 2026
Orbit: 430 x 541 km, 50.2° (Epoch: 9 March)

Event Time Altitude Azimuth Distance (km) Brightness Sun altitude
Rises 17:27:50 0° 268° (W) 2,454 11.7 5.8°
Reaches altitude 10° 17:29:59 10° 274° (W) 1,600 10.5 5.5°
Maximum altitude 17:33:29 48° 350° (N) 621 7.1 4.9°
Drops below altitude 10° 17:37:09 10° 66° (ENE) 1,668 8.6 4.3°
Sets 17:39:26 0° 72° (ENE) 2,572 9.5 4.0°
